Location: *
(10.4782°N, 67.2163°W)
Time: 02:05:28
(UTC+00:00)

ARIANE 5 R/B - Pass Details

Date: 23 May 2024
Orbit: 286 x 30651 km, 1.4° (Epoch: 11 June)

Event Time Altitude Azimuth Distance (km) Brightness Sun altitude
Rises 01:52:46 0° 265° (W) 18,128 10.0 -41.2°
Reaches altitude 10° 02:17:01 10° 264° (W) 21,646 10.1 -45.6°
Drops below altitude 10° 05:37:49 10° 267° (W) 35,279 10.7 -54.1°
Maximum altitude 09:37:03 44° 198° (SSW) 1,913 4.3 -7.4°
Sets 09:42:57 0° 115° (ESE) 2,702 6.0 -6.1°
